[Iaude] MPEC L15: 2018 LM [a=0.87,e=0.20,i=7.0,H=25.0]

mpec at mpcdb1.cfa.harvard.edu mpec at mpcdb1.cfa.harvard.edu
Wed Jun 6 06:33:16 EDT 2018


M.P.E.C. 2018-L15                                Issued 2018 June 6, 10:26 UT
 
     The Minor Planet Electronic Circulars contain information on unusual
         minor planets and routine data on comets.  They are published
    on behalf of Division F of the International Astronomical Union by the
          Minor Planet Center, Smithsonian Astrophysical Observatory,
                          Cambridge, MA 02138, U.S.A.

             Prepared using the Tamkin Foundation Computer Network

                              MPC at CFA.HARVARD.EDU
            URL https://www.minorplanetcenter.net/    ISSN 1523-6714


                                    2018 LM
 
Observations:
     K18L00M* C2018 06 04.25437 12 50 51.08 -06 15 42.9          18.8 GUEL015703
     K18L00M  C2018 06 04.26576 12 50 46.49 -06 19 12.5          18.9 GUEL015703
     K18L00M  C2018 06 04.27146 12 50 44.21 -06 20 58.8          18.7 GUEL015703
     K18L00M  C2018 06 04.29804 12 50 34.13 -06 29 07.3          18.6 GUEL015I52
     K18L00M  C2018 06 04.29845 12 50 33.98 -06 29 14.9          18.2 GUEL015I52
     K18L00M  C2018 06 04.29887 12 50 33.75 -06 29 22.8                UEL015I52
     K18L00M  C2018 06 04.29928 12 50 33.69 -06 29 30.1          18.1 GUEL015I52
     K18L00M  C2018 06 04.86334 12 48 13.50 -09 14 57.0                qEL015246
     K18L00M  C2018 06 04.86361 12 48 13.28 -09 15 00.1          18.9 RqEL015246
     K18L00M  C2018 06 04.86439 12 48 13.10 -09 15 12.4          18.7 RqEL015246
     K18L00M  C2018 06 04.86463 12 48 13.02 -09 15 15.2                qEL015246
     K18L00M  C2018 06 04.86481 12 48 12.96 -09 15 20.3                qEL015246
     K18L00M KC2018 06 04.86507 12 48 12.46 -09 15 09.0          19.3 VUEL015L01
     K18L00M KC2018 06 04.86682 12 48 11.78 -09 15 37.6          19.4 VUEL015L01
     K18L00M KC2018 06 04.86858 12 48 11.19 -09 16 05.7          19.6 VUEL015L01
     K18L00M KC2018 06 04.87081 12 48 10.37 -09 16 41.3          19.5 VUEL015L01
     K18L00M KC2018 06 05.13331 12 47 09.46 -10 25 51.5          18.7 GUEL015H36
     K18L00M KC2018 06 05.13619 12 47 08.41 -10 26 34.8          18.5 GUEL015H36
     K18L00M KC2018 06 05.13909 12 47 07.35 -10 27 19.4          18.7 GUEL015H36
     K18L00M  C2018 06 05.22906 12 46 39.34 -10 49 37.0          17.9 GUEL015I52
     K18L00M  C2018 06 05.22988 12 46 39.03 -10 49 49.2          17.9 GUEL015I52
     K18L00M  C2018 06 05.23030 12 46 38.87 -10 49 55.6          18.4 GUEL015I52
     K18L00M KC2018 06 05.35605 12 46 29.74 -11 14 47.3          18.1 RqEL015E08
     K18L00M KC2018 06 05.36405 12 46 26.91 -11 16 46.4          18.2 RqEL015E08
     K18L00M KC2018 06 05.37205 12 46 23.96 -11 18 45.7          18.3 RqEL015E08
     K18L00M  C2018 06 06.15912 12 43 27.33 -14 23 06.0          18.9 GUEL015I52
     K18L00M  C2018 06 06.15931 12 43 27.26 -14 23 08.3          18.5 GUEL015I52
     K18L00M  C2018 06 06.16104 12 43 26.71 -14 23 30.2          18.5 GUEL015I52
     K18L00M  C2018 06 06.16123 12 43 26.65 -14 23 32.8          18.8 GUEL015I52
 
Observer details:
246 Klet Observatory-KLENOT.  Observers M. Tichy, J. Ticha.  Measurer M. Tichy.
    1.06-m KLENOT Telescope + CCD.
703 Catalina Sky Survey.  Observer J. A. Johnson.  Measurers B. M. Africano,
    E. J. Christensen, D. C. Fuls, A. R. Gibbs, A. D. Grauer, H. Groeller,
    J. A. Johnson, R. A. Kowalski, S. M. Larson, G. J. Leonard, R. L. Seaman,
    F. C. Shelly.  0.68-m Schmidt + 10K CCD.
E08 Wobblesock Observatory, Coonabarabran.  Observer J. Nott.  0.35-m
    reflector + CCD.
H36 Sandlot Observatory, Scranton.  Observer G. Hug.  0.56-m reflector + CCD.
I52 Steward Observatory, Mt. Lemmon Station.  Observers J. A. Johnson,
    D. C. Fuls, H. Groeller.  Measurers B. M. Africano, E. J. Christensen,
    D. C. Fuls, A. R. Gibbs, A. D. Grauer, H. Groeller, J. A. Johnson,
    R. A. Kowalski, S. M. Larson, G. J. Leonard, R. L. Seaman, F. C. Shelly.
    1.0-m reflector + CCD.
L01 Visnjan Observatory, Tican.  Observer K. Korlevic.  1.0-m f/2.9 reflector
    + CCD.
 
Orbital elements:
2018 LM                                                  Earth MOID = 0.0090 AU
Epoch 2018 Mar. 23.0 TT = JDT 2458200.5                 MPC
M  60.87687              (2000.0)            P               Q
n   1.22111268     Peri.   20.27031     -0.04527875     -0.99225839
a   0.8668931      Node    72.46472     +0.89901677     -0.09094762
e   0.2007861      Incl.    6.96585     +0.43556707     +0.08456840
P   0.81           H   25.0           G   0.15           U   7
Residuals in seconds of arc
180604 703  0.1+  0.8-    180604 246  0.4+  1.0+    180605 I52  0.3+  0.2+
180604 703  0.0   0.6+    180604 246  0.4+  1.2-    180605 I52  0.1+  0.0
180604 703  0.4-  0.4-    180604 L01  0.3+  0.2+    180605 E08  0.4-  0.2-
180604 I52  0.5+  0.2+    180604 L01  0.4-  0.0     180605 E08  0.8+  0.0
180604 I52  0.5+  0.1+    180604 L01  0.3+  0.5+    180605 E08  0.4+  0.4-
180604 I52  0.6-  0.1-    180604 L01  0.1+  1.0+    180606 I52  0.1+  0.2+
180604 I52  0.8+  0.1+    180605 H36  0.2-  0.8-    180606 I52  0.1-  0.2+
180604 246  0.7+  1.8-    180605 H36  0.1-  0.1+    180606 I52  0.1+  0.2-
180604 246  1.1-  0.5-    180605 H36  0.0   0.0     180606 I52  0.1+  0.5-
180604 246  0.3+  0.1-    180605 I52  0.6+  0.1+

Ephemeris:
2018 LM                  a,e,i = 0.87, 0.20, 7                   q = 0.6928
Date    TT    R. A. (2000) Decl.     Delta      r     Elong.  Phase     V
2018 05 07    23 51 19.8 +52 54 58   0.06822 0.9673    50.9   126.0    24.4
...
2018 05 22    22 19 27.3 +69 29 45   0.02667 1.0029    68.8   109.8    21.3
...
2018 05 30    13 46 05.1 +42 01 03   0.01301 1.0173   106.3    73.0    18.2
...
2018 06 05    12 47 47.2 -09 45 52   0.02209 1.0260   120.6    58.3    18.9
2018 06 06    12 44 02.8 -13 44 59   0.02454 1.0272   120.2    58.7    19.1
2018 06 07    12 40 58.3 -17 00 07   0.02708 1.0284   119.5    59.2    19.3
...
2018 06 13    12 30 49.8 -28 08 18   0.04341 1.0345   114.8    63.0    20.5
...
2018 06 21    12 27 58.0 -34 22 21   0.06596 1.0396   109.0    67.5    21.6
...
2018 07 06    12 33 37.5 -39 36 43   0.1067  1.0399    99.6    74.6    22.8

A. U. Tomatic                (C) Copyright 2018 MPC           M.P.E.C. 2018-L15



More information about the Iaude mailing list